Weather History for Bettles, AK

Change the Weather History Date:

Friday, September 7, 2012

  Actual Average Record
Temperature  
Mean Temperature 40 °F -  
Max Temperature 46 °F 54 °F 66 °F (1951)
Min Temperature 35 °F 36 °F 18 °F (1952)
Degree Days  
Heating Degree Days 24    
Moisture  
Dew Point 39 °F    
Average Humidity 93    
Maximum Humidity 100    
Minimum Humidity 76    
Precipitation  
Precipitation 0.12 in - - ()
Sea Level Pressure  
Sea Level Pressure 29.94 in    
Wind  
Wind Speed 5 mph (SSW)    
Max Wind Speed 7 mph    
Max Gust Speed -    
Visibility 9 miles    
Events Rain    
Averages and records for this station are not official NWS values.
T = Trace of Precipitation, MM = Missing Value Source: NWS Daily Summary

Daily Weather History Graph

Daily Weather History Graph

Search for Another Location

Airport:

Trip Planner

Search our weather history database for the weather conditions in past years. The results will help you decide how hot, cold, wet, or windy it might be!

Date:

Astronomy

Sep. 07, 2012 Rise Set
Actual Time 7:00 AM AKDT 9:05 PM AKDT
Civil Twilight 6:02 AM AKDT 10:02 PM AKDT
Nautical Twilight 4:42 AM AKDT 11:21 PM AKDT
Astronomical Twilight 2:36 AM AKDT 1:31 AM AKDT
Moon 9:24 PM AKDT (9/7) 5:46 PM AKDT (9/7)
Length of Visible Light 15h 59m
Length of Day
14h 04m
Waning Gibbous, 57% of the Moon is Illuminated
Sep 7
Waning Gibbous
Sep 8
Last Quarter
Sep 15
New
Sep 22
First Quarter
Sep 29
Full

Hourly Weather History & Observations

Time (AKDT) Temp. Windchill Dew Point Humidity Pressure Visibility Wind Dir Wind Speed Gust Speed Precip Events Conditions
12:53 AM 42.1 °F 38.4 °F 41.0 °F 96% 29.93 in 10.0 mi South 5.8 mph - 0.00 in   Overcast
1:53 AM 42.1 °F 37.7 °F 39.9 °F 92% 29.94 in 10.0 mi Variable 6.9 mph - N/A   Overcast
2:00 AM 42.8 °F 39.3 °F 39.2 °F 87% 29.91 in 8.0 mi South 5.8 mph - N/A   Overcast
2:53 AM 41.0 °F 36.4 °F 39.9 °F 96% 29.95 in 10.0 mi South 6.9 mph - N/A   Overcast
3:00 AM 41.0 °F 39.0 °F 39.2 °F 93% 29.91 in 10.0 mi Variable 3.5 mph - N/A   Overcast
3:53 AM 41.0 °F 37.1 °F 39.9 °F 96% 29.96 in 10.0 mi South 5.8 mph - N/A   Overcast
4:01 AM 41.0 °F 38.0 °F 39.2 °F 93% 29.92 in 10.0 mi South 4.6 mph - N/A   Overcast
4:53 AM 39.9 °F 35.8 °F 39.9 °F 100% 29.96 in 7.0 mi South 5.8 mph - N/A   Overcast
5:18 AM 39.2 °F 35.0 °F 39.2 °F 100% 29.93 in 5.0 mi South 5.8 mph - N/A   Overcast
5:53 AM 39.9 °F 35.8 °F 39.9 °F 100% 29.97 in 10.0 mi South 5.8 mph - N/A   Overcast
6:53 AM 39.9 °F 35.1 °F 39.9 °F 100% 29.97 in 10.0 mi South 6.9 mph - 0.00 in Rain Light Rain
7:53 AM 39.9 °F 36.7 °F 39.9 °F 100% 29.97 in 5.0 mi SSW 4.6 mph - 0.02 in Rain Light Rain
8:14 AM 39.2 °F 35.9 °F 39.2 °F 100% 29.94 in 5.0 mi Variable 4.6 mph - 0.03 in Rain Rain
8:53 AM 39.9 °F 36.7 °F 39.9 °F 100% 29.97 in 10.0 mi South 4.6 mph - 0.05 in Rain Light Rain
9:00 AM 39.2 °F 37.0 °F 39.2 °F 100% 29.94 in 10.0 mi South 3.5 mph - 0.00 in Rain Light Rain
9:07 AM 41.0 °F 38.0 °F 39.2 °F 93% 29.94 in 10.0 mi South 4.6 mph - 0.00 in Rain Light Rain
9:21 AM 41.0 °F 39.0 °F 39.2 °F 93% 29.94 in 10.0 mi Variable 3.5 mph - 0.00 in Rain Light Rain
9:53 AM 41.0 °F 39.0 °F 39.9 °F 96% 29.98 in 10.0 mi Variable 3.5 mph - 0.03 in Rain Light Rain
10:01 AM 41.0 °F 39.0 °F 41.0 °F 100% 29.94 in 10.0 mi South 3.5 mph - 0.00 in Rain Light Rain
10:04 AM 41.0 °F 37.1 °F 41.0 °F 100% 29.94 in 10.0 mi South 5.8 mph - 0.00 in Rain Light Rain
10:11 AM 41.0 °F 36.4 °F 39.2 °F 93% 29.94 in 10.0 mi SSW 6.9 mph - 0.00 in Rain Light Rain
10:53 AM 42.1 °F 39.2 °F 41.0 °F 96% 29.98 in 10.0 mi SSW 4.6 mph - 0.01 in Rain Light Rain
11:34 AM 42.8 °F 39.3 °F 39.2 °F 87% 29.95 in 10.0 mi SW 5.8 mph - 0.00 in Rain Light Rain
11:53 AM 42.1 °F 37.7 °F 39.9 °F 92% 29.99 in 10.0 mi SW 6.9 mph - 0.00 in Rain Light Rain
12:16 PM 42.8 °F 40.1 °F 39.2 °F 87% 29.95 in 10.0 mi SW 4.6 mph - 0.00 in Rain Light Rain
12:53 PM 42.1 °F 40.2 °F 39.9 °F 92% 29.99 in 8.0 mi Variable 3.5 mph - 0.00 in Rain Light Rain
1:53 PM 43.0 °F 41.3 °F 39.9 °F 89% 29.98 in 10.0 mi SW 3.5 mph - 0.01 in Rain Light Rain
2:53 PM 43.0 °F 41.3 °F 39.9 °F 89% 29.97 in 10.0 mi SSW 3.5 mph - 0.00 in Rain Light Rain
3:53 PM 44.1 °F 41.5 °F 39.9 °F 85% 29.96 in 10.0 mi WSW 4.6 mph - N/A   Overcast
4:53 PM 45.0 °F 42.6 °F 39.9 °F 82% 29.94 in 10.0 mi SW 4.6 mph - N/A   Overcast
5:26 PM 44.6 °F 43.1 °F 39.2 °F 81% 29.90 in 10.0 mi SW 3.5 mph - N/A   Overcast
5:53 PM 45.0 °F 42.6 °F 37.9 °F 76% 29.94 in 10.0 mi SW 4.6 mph - N/A   Overcast
6:53 PM 45.0 °F 42.6 °F 37.9 °F 76% 29.93 in 10.0 mi Variable 4.6 mph - 0.00 in Rain Light Rain
7:53 PM 44.1 °F - 39.0 °F 82% 29.92 in 10.0 mi Calm Calm - 0.00 in   Overcast
8:53 PM 42.1 °F - 41.0 °F 96% 29.92 in 10.0 mi Calm Calm - N/A   Mostly Cloudy
9:53 PM 37.4 °F - 37.4 °F 100% 29.88 in 10.0 mi Calm Calm - N/A   Mostly Cloudy
10:53 PM 36.0 °F - 36.0 °F 100% 29.92 in 10.0 mi Calm Calm - N/A   Mostly Cloudy
11:06 PM 35.6 °F - 35.6 °F 100% 29.88 in 10.0 mi Calm Calm - N/A   Overcast
11:49 PM 35.6 °F - 35.6 °F 100% 29.89 in 5.0 mi Calm Calm - N/A   Overcast
11:53 PM 35.1 °F - 35.1 °F 100% 29.92 in 1.0 mi Calm Calm - N/A   Overcast